Printer-friendly version

IAU Minor Planet Center

Minor Planet Center

MPEC 2007-O03 : 2007 NS2

The following Minor Planet Electronic Circular may be linked-to from your own Web pages, but must not otherwise be redistributed electronically.


Read MPEC 2007-O02 Read MPEC 2007-O04


M.P.E.C. 2007-O03                                Issued 2007 July 16, 12:37 UT

     The Minor Planet Electronic Circulars contain information on unusual
         minor planets and routine data on comets.  They are published
   on behalf of Commission 20 of the International Astronomical Union by the
          Minor Planet Center, Smithsonian Astrophysical Observatory,
                          Cambridge, MA 02138, U.S.A.

             Prepared using the Tamkin Foundation Computer Network

                              MPC@CFA.HARVARD.EDU
          URL http://www.cfa.harvard.edu/iau/mpc.html  ISSN 1523-6714

                                   2007 NS2

Observations:
     K07N02S  C2007 06 24.39887 21 06 03.26 -10 41 35.4          20.5 V EO003691
     K07N02S  C2007 06 24.41399 21 06 02.50 -10 41 16.2          19.5 V EO003691
     K07N02S  C2007 06 24.42912 21 06 01.78 -10 40 57.2          19.5 V EO003691
     K07N02S  C2007 07 13.99164 20 41 47.10 -03 43 38.7          18.5   EO003A77
     K07N02S  C2007 07 14.00804 20 41 45.41 -03 43 18.4          18.6   EO003A77
     K07N02S* C2007 07 14.02171 20 41 44.06 -03 43 00.8          18.8 V EO003J75
     K07N02S  C2007 07 14.02428 20 41 43.68 -03 42 58.4          18.2   EO003A77
     K07N02S  C2007 07 14.08300 20 41 37.56 -03 41 44.9          19.2 V EO003J75
     K07N02S  C2007 07 14.14392 20 41 31.09 -03 40 28.6          19.1 V EO003J75
     K07N02S  C2007 07 14.93223 20 40 11.01 -03 24 17.3          18.2 R EO003620
     K07N02S  C2007 07 14.93592 20 40 10.56 -03 24 13.4          18.1 R EO003620
     K07N02S  C2007 07 14.93963 20 40 10.26 -03 24 09.8          18.1 R EO003620
     K07N02S  C2007 07 14.94332 20 40 09.77 -03 24 04.5          18.4 R EO003620
     K07N02S  C2007 07 14.94701 20 40 09.42 -03 23 59.7          18.5 R EO003620
     K07N02S  C2007 07 14.95069 20 40 09.01 -03 23 55.3          18.3 R EO003620
     K07N02S  C2007 07 15.09387 20 39 53.55 -03 21 00.0          18.3 R EO003620
     K07N02S  C2007 07 15.09944 20 39 52.92 -03 20 52.9          18.2 R EO003620
     K07N02S  C2007 07 15.10513 20 39 52.31 -03 20 45.8          18.3 R EO003620
     K07N02S  C2007 07 15.11078 20 39 51.70 -03 20 39.3          18.3 R EO003620
     K07N02S  C2007 07 15.95195 20 38 24.30 -03 03 33.9          18.1   EO003A77
     K07N02S  C2007 07 15.95678 20 38 23.81 -03 03 27.7          18.4   EO003A77
     K07N02S  C2007 07 15.96162 20 38 23.27 -03 03 21.4          18.4   EO003A77
     K07N02S  C2007 07 16.02481 20 38 16.38 -03 02 03.8          18.3 R EO003620
     K07N02S  C2007 07 16.03162 20 38 15.61 -03 01 56.6          18.3 R EO003620
     K07N02S  C2007 07 16.04060 20 38 14.62 -03 01 44.7          18.1 R EO003620

Observer details:
620 Observatorio Astronomico de Mallorca.  Observers J. Rodriguez, S. Sanchez.
    Measurer R. Stoss.  0.30-m f/9 Schmidt-Cassegrain + CCD.
691 Steward Observatory, Kitt Peak.  Observer A. F. Tubbiolo.  0.9-m f/3
    reflector + CCD.
A77 Observatoire Chante-Perdrix, Dauban. Observers C. Rinner, F. Kugel.
     0.5-m f/3 reflector + CCD.
J75 OAM Observatory, La Sagra.  Observers J. L. Ortiz, A. Cikota, S. Cikota.
    Measurers R. Stoss, J. Nomen.  0.45-m f/2.8 reflector + CCD.

Orbital elements:
2007 NS2
Epoch 2007 Apr. 10.0 TT = JDT 2454200.5                 MPC
M 152.59569              (2000.0)            P               Q
n   0.52394186     Peri.  176.95754     -0.16747895     -0.93531461
a   1.5238679      Node   282.52618     +0.89764907     -0.01395292
e   0.0538742      Incl.   18.61868     +0.40764807     -0.35354193
P   1.88           H   17.7           G   0.15           U   6
Residuals in seconds of arc
070624 691  0.3+  0.0     070714 620  0.3+  0.7+    070715 620  0.0   0.3-
070624 691  0.2-  0.1+    070714 620  0.5-  0.0     070715 A77  0.4-  0.4-
070624 691  0.1-  0.1-    070714 620  1.0+  0.9-    070715 A77  0.2+  0.1-
070713 A77  0.6-  0.1+    070714 620  0.4-  0.1-    070715 A77  0.0   0.3+
070714 A77  0.1+  0.1+    070714 620  0.3+  0.2+    070716 620  0.1+  0.5+
070714 J75  0.1-  0.3-    070714 620  0.0   0.0     070716 620  0.2-  0.6-
070714 A77  0.1-  0.0     070715 620  0.3+  0.2-    070716 620  0.2-  0.4+
070714 J75  0.1+  0.3-    070715 620  0.1-  0.1+
070714 J75  0.1+  0.6+    070715 620  0.0   0.2+

Ephemeris:
2007 NS2                 a,e,i = 1.52, 0.05, 19                  q = 1.4418
Date    TT    R. A. (2000) Decl.     Delta      r     Elong.  Phase     V
2007 07 09    20 49.74   -05 28.4    0.636    1.602   150.7    18.1    18.7
2007 07 19    20 32.92   -02 02.8    0.609    1.599   158.6    13.4    18.4
2007 07 29    20 13.96   +00 55.0    0.604    1.596   159.7    12.7    18.4
2007 08 08    19 55.86   +03 09.7    0.620    1.592   153.3    16.6    18.6
2007 08 18    19 41.34   +04 35.9    0.654    1.588   143.9    22.1    18.8
2007 08 28    19 32.09   +05 20.5    0.702    1.583   134.4    27.1    19.1
2007 09 07    19 28.47   +05 35.5    0.761    1.578   125.7    31.2    19.4
2007 09 17    19 30.14   +05 33.0    0.826    1.572   117.9    34.4    19.7
2007 09 27    19 36.45   +05 23.5    0.896    1.566   111.0    36.7    19.9
2007 10 07    19 46.62   +05 14.2    0.968    1.560   104.8    38.3    20.1
2007 10 17    20 00.02   +05 10.1    1.041    1.553    99.3    39.3    20.3
2007 10 27    20 16.10   +05 15.2    1.113    1.546    94.2    39.9    20.5
2007 11 06    20 34.38   +05 31.2    1.184    1.539    89.5    40.1    20.6
2007 11 16    20 54.53   +05 59.8    1.254    1.531    85.2    40.1    20.7
2007 11 26    21 16.24   +06 41.4    1.323    1.524    81.2    39.8    20.8
2007 12 06    21 39.26   +07 35.8    1.389    1.516    77.3    39.3    20.9
2007 12 16    22 03.43   +08 42.3    1.454    1.509    73.6    38.8    21.0
2007 12 26    22 28.58   +09 59.7    1.517    1.501    70.1    38.0    21.0
2008 01 05    22 54.60   +11 25.9    1.579    1.494    66.7    37.2    21.1
2008 01 15    23 21.42   +12 58.9    1.639    1.487    63.4    36.3    21.1
2008 01 25    23 48.98   +14 36.0    1.698    1.480    60.2    35.3    21.2

Timothy B. Spahr             (C) Copyright 2007 MPC           M.P.E.C. 2007-O03

Read MPEC 2007-O02 Read MPEC 2007-O04


Our Web policy. Index to the CBAT/MPC/ICQ pages.


Valid HTML 4.01!